Brunei, Brunei

12:28 PM BNT on August 30, 2016 (GMT +0800)
Brunei

Weather History for 96315 - August, 2013

Change the Weather History Date:

Wednesday, August 7, 2013

  Actual Average Record
Temperature  
Mean Temperature 82 °F -  
Max Temperature 89 °F 88 °F - ()
Min Temperature 75 °F 74 °F - ()
Cooling Degree Days 17    
Growing Degree Days 32 (Base 50)    
Moisture  
Dew Point 75 °F    
Average Humidity 80    
Maximum Humidity 100    
Minimum Humidity 59    
Precipitation  
Precipitation 0.04 in 0.29 in - ()
Sea Level Pressure  
Sea Level Pressure 29.83 in    
Wind  
Wind Speed 4 mph ()    
Max Wind Speed 13 mph    
Max Gust Speed -    
Visibility 6.3 miles    
Events Rain , Thunderstorm    
T = Trace of Precipitation, MM = Missing Value Source: Averaged Metar Reports

Daily Weather History Graph

Daily Weather History Graph

Search for Another Location

Airport or City:

Trip Planner

Search our weather history database for the weather conditions in past years. The results will help you decide how hot, cold, wet, or windy it might be!

Date:

Astronomy

Aug. 07, 2013 Rise Set
Actual Time 6:16 AM BNT 6:35 PM BNT
Civil Twilight 5:55 AM BNT 6:56 PM BNT
Nautical Twilight 5:29 AM BNT 7:22 PM BNT
Astronomical Twilight 5:04 AM BNT 7:47 PM BNT
Moon 6:16 AM BNT (8/7) 6:46 PM BNT (8/7)
Length of Visible Light 13h 01m
Length of Day
12h 18m
New Moon, 0% of the Moon is Illuminated
Aug 7
New Moon
Aug 14
First Quarter
Aug 21
Full
Aug 28
Last Quarter
Sep 5
New

Hourly Weather History & Observations

Time (BNT) Temp. Heat Index Dew Point Humidity Pressure Visibility Wind Dir Wind Speed Gust Speed Precip Events Conditions
12:00 AM 78.8 °F - 75.2 °F 89% 29.89 in 6.2 mi WSW 3.5 mph - N/A   Mostly Cloudy
12:30 AM 78.8 °F - 77.0 °F 94% 29.86 in 6.2 mi SW 2.3 mph - N/A   Mostly Cloudy
1:00 AM 78.8 °F - 75.2 °F 89% 29.86 in 6.2 mi South 3.5 mph - N/A   Mostly Cloudy
1:30 AM 78.8 °F - 75.2 °F 89% 29.86 in 6.2 mi SSW 3.5 mph - N/A   Mostly Cloudy
2:00 AM 78 °F - 76 °F 91% 29.86 in 6 mi SW 2.3 mph - -   Haze
2:00 AM 77.0 °F - 75.2 °F 94% 29.86 in 6.2 mi SW 2.3 mph - N/A   Mostly Cloudy
2:30 AM 77.0 °F - 75.2 °F 94% 29.83 in 6.2 mi South 3.5 mph - N/A   Mostly Cloudy
3:00 AM 77.0 °F - 75.2 °F 94% 29.83 in 6.2 mi South 1.2 mph - N/A   Mostly Cloudy
3:30 AM 77.0 °F - 75.2 °F 94% 29.83 in 6.2 mi South 2.3 mph - N/A   Mostly Cloudy
4:00 AM 77.0 °F - 75.2 °F 94% 29.80 in 6.2 mi South 2.3 mph - N/A   Mostly Cloudy
4:30 AM 75.2 °F - 75.2 °F 100% 29.80 in 6.2 mi South 2.3 mph - N/A   Mostly Cloudy
5:00 AM 76 °F - 75 °F 97% 29.82 in 6 mi South 2.3 mph - -   Mist
5:00 AM 77.0 °F - 75.2 °F 94% 29.80 in 6.2 mi South 2.3 mph - N/A   Mostly Cloudy
5:30 AM 77.0 °F - 75.2 °F 94% 29.83 in 6.2 mi South 2.3 mph - N/A   Mostly Cloudy
6:00 AM 77.0 °F - 75.2 °F 94% 29.83 in 6.2 mi WSW 3.5 mph - N/A   Mostly Cloudy
6:30 AM 75.2 °F - 75.2 °F 100% 29.83 in 6.2 mi SW 3.5 mph - N/A   Mostly Cloudy
7:00 AM 75.2 °F - 75.2 °F 100% 29.83 in 6.2 mi SSW 3.5 mph - N/A   Mostly Cloudy
7:30 AM 77.0 °F - 75.2 °F 94% 29.83 in 6.2 mi SSW 3.5 mph - N/A   Mostly Cloudy
8:00 AM 79 °F - 75 °F 84% 29.86 in 12 mi South 2.3 mph - -  
8:00 AM 78.8 °F - 75.2 °F 89% 29.86 in 6.2 mi South 2.3 mph - N/A   Mostly Cloudy
8:30 AM 82.4 °F 89.5 °F 75.2 °F 79% 29.86 in 6.2 mi South 2.3 mph - N/A   Scattered Clouds
9:00 AM 84.2 °F 94.1 °F 77.0 °F 79% 29.86 in 6.2 mi SSE 3.5 mph - N/A   Scattered Clouds
9:30 AM 84.2 °F 94.1 °F 77.0 °F 79% 29.86 in 6.2 mi South 3.5 mph - N/A   Scattered Clouds
10:00 AM 86.0 °F 96.9 °F 77.0 °F 74% 29.86 in 6.2 mi ESE 3.5 mph - N/A   Scattered Clouds
10:30 AM 87.8 °F 97.6 °F 75.2 °F 66% 29.86 in 6.2 mi SSE 4.6 mph - N/A   Scattered Clouds
11:00 AM 88 °F - 76 °F 59% 29.85 in 12 mi SW 3.5 mph - -   Partly Cloudy
11:00 AM 87.8 °F 97.6 °F 75.2 °F 66% 29.83 in 6.2 mi SW 3.5 mph - N/A   Scattered Clouds
11:30 AM 89.6 °F 99.8 °F 75.2 °F 62% 29.83 in 6.2 mi SSE 4.6 mph - N/A   Scattered Clouds
12:00 PM 87.8 °F 97.6 °F 75.2 °F 66% 29.83 in 6.2 mi WSW 5.8 mph - N/A   Scattered Clouds
12:30 PM 87.8 °F 99.7 °F 77.0 °F 70% 29.83 in 6.2 mi NNW 6.9 mph - N/A   Mostly Cloudy
1:00 PM 87.8 °F 99.7 °F 77.0 °F 70% 29.80 in 6.2 mi NNW 8.1 mph - N/A   Mostly Cloudy
1:30 PM 86.0 °F 96.9 °F 77.0 °F 74% 29.80 in 6.2 mi NNW 8.1 mph - N/A   Mostly Cloudy
2:00 PM 88 °F - 78 °F 65% 29.80 in 6 mi North 5.8 mph - - Rain Light Rain Showers
2:00 PM 87.8 °F 99.7 °F 77.0 °F 70% 29.80 in 6.2 mi North 5.8 mph - N/A   Mostly Cloudy
2:30 PM 87.8 °F 97.6 °F 75.2 °F 66% 29.77 in 6.2 mi North 5.8 mph - N/A   Mostly Cloudy
3:00 PM 87.8 °F 97.6 °F 75.2 °F 66% 29.77 in 6.2 mi WNW 11.5 mph - N/A   Mostly Cloudy
3:30 PM 87.8 °F 97.6 °F 75.2 °F 66% 29.74 in 6.2 mi NW 11.5 mph - N/A   Mostly Cloudy
4:00 PM 87.8 °F 97.6 °F 75.2 °F 66% 29.77 in 6.2 mi WNW 12.7 mph - N/A   Mostly Cloudy
4:30 PM 87.8 °F 97.6 °F 75.2 °F 66% 29.77 in 6.2 mi West 10.4 mph - N/A   Mostly Cloudy
5:00 PM 85 °F - 74 °F 61% 29.80 in 9 mi WNW 6.9 mph - -   Scattered Clouds
5:00 PM 86.0 °F 93.4 °F 73.4 °F 66% 29.77 in 6.2 mi West 11.5 mph - N/A   Mostly Cloudy
5:30 PM 86.0 °F 93.4 °F 73.4 °F 66% 29.77 in 6.2 mi West 11.5 mph - N/A   Mostly Cloudy
6:00 PM 86.0 °F 93.4 °F 73.4 °F 66% 29.80 in 6.2 mi WNW 6.9 mph - N/A   Mostly Cloudy
6:30 PM 84.2 °F 90.9 °F 73.4 °F 70% 29.80 in 6.2 mi WNW 6.9 mph - N/A   Mostly Cloudy
7:00 PM 84.2 °F 90.9 °F 73.4 °F 70% 29.80 in 6.2 mi WNW 6.9 mph - N/A   Mostly Cloudy
7:30 PM 84.2 °F 90.9 °F 73.4 °F 70% 29.83 in 6.2 mi NW 5.8 mph - N/A   Mostly Cloudy
8:00 PM 84.2 °F 92.3 °F 75.2 °F 74% 29.83 in 6.2 mi NNW 3.5 mph - N/A   Mostly Cloudy
8:30 PM 84.2 °F 92.3 °F 75.2 °F 74% 29.86 in 6.2 mi NW 4.6 mph - N/A   Mostly Cloudy
9:00 PM 84.2 °F 92.3 °F 75.2 °F 74% 29.86 in 6.2 mi NNW 4.6 mph - N/A Rain Light Rain Showers
9:30 PM 82.4 °F 90.9 °F 77.0 °F 84% 29.89 in 4.3 mi East 8.1 mph - N/A Rain Light Rain Showers
10:00 PM 77.0 °F - 75.2 °F 94% 29.89 in 4.3 mi East 5.8 mph - N/A Rain , Thunderstorm Light Thunderstorms and Rain
10:30 PM 77.0 °F - 75.2 °F 94% 29.89 in 4.3 mi ESE 5.8 mph - N/A Rain , Thunderstorm Light Thunderstorms and Rain
11:00 PM 77.0 °F - 75.2 °F 94% 29.89 in 4.3 mi ESE 4.6 mph - N/A Rain , Thunderstorm Light Thunderstorms and Rain
11:30 PM 77.0 °F - 75.2 °F 94% 29.89 in 4.3 mi South 5.8 mph - N/A Rain , Thunderstorm Light Thunderstorms and Rain